{"data":{"norad_id":62409,"intl_designator":"2024-249A","name":"STARLINK-11444 [DTC]","alt_names":[],"object_type":"PAYLOAD","status":"ACTIVE","operator":null,"country":"US","launch_date":"2024-12-23","launch_site_code":"AFETR","launch_vehicle":null,"mission":null,"orbit_class":"UNKNOWN","rcs_meters":null,"size_class":null,"mass_kg":null,"dimensions":null,"purposes":["comms"],"wikipedia_slug":null,"has_3d_model":false,"image_url":null,"decayed_at":null,"tle_current":{"epoch":"2026-09-21T18:11:35.405088Z","epoch_age_seconds":65831,"freshness":"FRESH","line1":"1 62409U 24249A   26264.75804867  .00122310  00000+0  94144-3 0  9990","line2":"2 62409  42.9994  66.1286 0002242 279.1719  80.8895 15.70871361100317","mean_motion":15.70871361,"eccentricity":0.0002242,"inclination_deg":42.9994,"raan_deg":66.1286,"arg_perigee_deg":279.1719,"mean_anomaly_deg":80.8895,"bstar":0.00094144,"rev_number":10031,"period_min":91.668868358725,"perigee_km":354.89554304026,"apogee_km":357.91531186473,"semimajor_km":6734.5424274525,"source":"CELESTRAK","updated_at":"2026-09-22T09:00:49.575327Z"}}}